Regional Weather Roundup
Issued by NWS Newport/Morehead, NC

Current Version | Previous Version | Graphics & Text | Print | Product List | Glossary On
Versions: 1 2 3 4 5 6 7 8 9 10 11 12 13 14 15 16 17 18 19 20 21 22 23 24 25 26 27 28 29 30 31 32 33 34 35 36 37 38 39 40 41 42 43 44 45 46 47 48 49 50
776 ASUS42 KMHX 241425 RWRMHX WEATHER ROUNDUP FOR EASTERN NORTH CAROLINA NATIONAL WEATHER SERVICE NEWPORT/MOREHEAD CITY NC 1000 AM EDT SAT SEP 24 2016 NOTE: "FAIR" INDICATES FEW OR NO CLOUDS BELOW 12,000 FEET WITH NO SIGNIFICANT WEATHER AND/OR OBSTRUCTIONS TO VISIBILITY NCZ015>017-031-032-045>047-102-103-241500- NORTH COAST CITY SKY/WX TMP DP RH WIND PRES REMARKS EDENTON MOSUNNY 75 75 100 CALM 30.06S ELIZABETH CITY MOSUNNY 73 71 93 W5 30.05S KITTY HAWK NOT AVBL MANTEO SUNNY 76 71 84 N7 30.04F $$ NCZ045>047-081-094-103-104-241500- CENTRAL COAST CITY SKY/WX TMP DP RH WIND PRES REMARKS FRISCO SUNNY 80 67 64 N7 30.03F $$ NCZ095-097-098-100-101-241500- SOUTHERN COAST CITY SKY/WX TMP DP RH WIND PRES REMARKS BEAUFORT SUNNY 81 71 71 N8 30.04S CEDAR ISLAND NOT AVBL JACKSONVILLE PTSUNNY 79 73 82 VRB7 30.05S PINEY ISLAND SUNNY N/A N/A N/A N10 30.04S WILMINGTON PTSUNNY 78 73 84 N7 30.05S $$ NCZ011>013-027>030-043-044-078>080-089-090>093-098-241500- COASTAL PLAIN CITY SKY/WX TMP DP RH WIND PRES REMARKS AHOSKIE SUNNY 76 72 86 CALM 30.05F CLINTON SUNNY 77 72 84 N3 30.08S ELIZABETHTOWN SUNNY 77 72 85 CALM 30.07S GOLDSBORO SUNNY 76 74 93 VRB1 30.05S GREENVILLE SUNNY 73 73 100 N3 30.08S HAVELOCK MOSUNNY 79 72 79 N10 30.06S KENANSVILLE SUNNY 77 72 83 NW6 30.07F KINSTON CLOUDY 72 72 100 CALM 30.07S FOG NEW BERN SUNNY 77 71 82 NE6 30.07R RICHLANDS PTSUNNY 77 73 87 VRB3 30.07R ROCKY MOUNT SUNNY 77 72 84 CALM 30.07R WASHINGTON MOSUNNY 72 72 99 CALM 30.06S WHITEVILLE MOSUNNY 79 72 80 CALM 30.06S $$ AMZ130-135-150-152-154-156-158-170-250-252-270-ANZ085-086-088-633-658-670-241500- MARINE OBSERVATIONS STATION/POSITION TIME TEMP WIND PRES WAVE SWELL AIR SEA DIR/SP/G HT/PER HT/PER (UTC) (F) (DEG/KT/KT) (MB) (FT/S) (FT/S) CHESAPEAKE LIGHT NOT AVBL 64 E VA BEACH 1350 75 77 300/ 6/ 8 1016.3 3/10 3/10 DUCK 1400 74 77 310/ 6/ 8 1016.5 2 E DUCK 1341 77 N/A 3/11 2/11 OREGON INLET 1400 77 79 340/ 8/ 11 1017.0 13E OREGON INLT 1400 77 N/A 4/10 3/10 HATTERAS CG 1400 78 81 10/ 9/ 12 1016.8 DIAMOND BUOY 1350 77 81 20/ 12/ 16 1016.6 5/10 5/10 CAPE LOOKOUT 1400 78 10/ 11/ 12 1017.0 BEAUFORT LAB 1400 78 79 20/ 7/ 8 1016.8 30 SE NEW RVR IN 1408 79 82 20/ 12/ 16 1017.0 30 SE NEW RVR IN 1355 82 N/A 4/10 2/11 27 SE WRIGHTSVLE 1408 80 81 20/ 12/ 16 1017.3 5 SE WRIGHTSVLE 1408 78 81 30/ 10/ 12 1018.6 225 S CAPE HAT 1350 82 83 290/ 8/ 10 1016.3 5/10 5/10 41 SE CHARLESTON 1350 80 82 20/ 8/ 12 1016.5 3/11 3/11 $$

USA.gov is the U.S. government's official web portal to all federal, state and local government web resources and services.